KZ-1A R/B

Last updated on June 12, 2020, 12:02 a.m. UTC

1 45604U 20028C   20163.62851207  .00393994  23391-5  14878-3 0  9995
2 45604  97.5372 194.9349 0426166 257.3179  98.0118 15.39705211  4647

Satellite is not in orbit.